Погода в Селихино

Россия / Хабаровский край     50°22′01″N   137°30′06″E
темп.,
°C
ветер,
м/с
пор.,
м/с
влажн.,
%
обл.,
%
осадки,
мм/ч
давл.,
гПа
погр.,
м
10 апреля, сб
сб1001:00−1ююв23755 0.0 102359
04:00−1ююв35751 0.0 1022104
07:00−1ююв48731 0.0 1023270
10:00+4ю57535 0.0 1023685
13:00+8ююз68423 0.0 10221123
16:00+11юз58345 0.0 10201541
19:00+8ю48462 0.0 1019151
22:00+4ююв49605 0.0 1021170
11 апреля, вс
вс1101:00+3ююв510635 0.0 1021190
04:00+3ю5125848 0.0 1020249
07:00+5ююз7165256 0.0 1019525
10:00+5ююз91666100 0.1 1019940
13:00+7ююз81467100 0.1 10181277
16:00+8юз71169100 0.1 1018944
19:00+7ююз61275100 0.0 1018514
22:00+5юз1290100 0.3 101929
12 апреля, пн
пн1201:00+5вюв2284100 0.0 101820
04:00+4всв1176100 0.1 101716
07:00+3в1183100 0.6 101725
10:00+4юв0186100 0.6 1016243
13:00+4вюв0181100 0.3 1015419
16:00+3вюв1195100 3.3 1013343
19:00+1ссв4699100 2.9 1012240
22:000с4799100 5.0 1011258
13 апреля, вт
вт1301:00−3с5796100 4.9 1008277
04:00−5с71195100 9.9 1007447
07:00−5с71195100 4.4 1006525
10:00−4с71094100 6.6 1007665
13:00−4с6992100 1.3 1007787
16:00−2ссв688198 1.7 1007971
19:00−4ссв3786100 0.0 1007275
22:00−8с269486 0.0 100895
14 апреля, ср
ср1401:00−8с3894100 0.0 1008194
04:00−7ссз479394 0.1 1008248
07:00−7ссз389276 0.1 1009375
10:00−4ссз5678100 0.2 10101124
13:00−2сз5771100 0.3 10111472
16:00−1зсз4568100 0.4 10111263
19:00−3ю118871 0.3 101338
22:00−9вюв229137 0.3 101513